[[{"header":{"parameterUnit":"m.s-1","parameterCategory":1,"la1":30.2991,"la2":30.254,"lo1":-89.0895,"lo2":-89.0444,"dy":0.0017,"dx":0.0017,"nx":28,"ny":28,"refTime":"2024-07-07T09:00:00:Z","depth":0,"parameterNumber":2,"parameterNumberName":"U-component_of_WINDS"},"data":[0,0,0,0,0,0,0,0,0,0,0,0,0,0,0,0,0,0,0,0,0,0,0,0,0,0,0,0,0,0,0,0,0,0,0,0,0,0,0,0,0,0,0,0,0,0,0,0,0,0,0,0,0,0,0,0,0,0,2.8212,2.8213,0,2.8321,2.8322,2.8323,2.8304,2.8302,2.83,2.8298,2.8402,2.8407,2.8411,0,0,0,0,0,0,0,0,0,0,0,0,0,2.7982,2.7986,2.8212,2.8214,2.8215,2.832,2.8322,2.8323,2.8304,2.8302,2.83,2.8298,2.8401,2.8406,2.8412,0,0,0,0,0,0,0,0,0,0,0,0,0,2.8085,2.7988,2.8212,2.8218,2.822,2.832,2.8322,2.8324,2.8305,2.8302,2.8299,2.8297,2.8399,2.8406,2.8412,2.8511,0,0,2.8433,2.8436,0,0,0,0,0,0,0,0,2.8079,2.8094,2.8216,2.8218,2.822,2.8296,2.8279,2.8386,2.8306,2.8272,2.8298,2.8295,2.8369,2.8378,2.8404,2.8516,2.852,2.8434,2.8438,2.8441,2.8443,0,0,0,0,0,0,0,2.8072,2.8089,2.8255,2.8218,2.822,2.8213,2.8225,2.8299,2.8335,2.8275,2.8274,2.8287,2.8369,2.8398,2.8406,2.8521,2.8433,2.8439,2.8444,2.8446,2.8717,2.872,0,0,0,0,0,0,2.8064,2.8083,2.8251,2.8258,2.8142,2.822,2.8233,2.8274,2.8334,2.8341,2.829,2.8286,2.8387,2.8399,2.841,2.8527,2.8441,2.8447,2.8451,2.8714,2.8718,2.8721,0,0,0,0,0,0,2.8059,2.8079,2.8247,2.817,2.8191,2.8227,2.8274,2.8278,2.8306,2.8345,2.8351,2.8313,2.8386,2.84,2.8486,2.8531,2.845,2.8456,2.871,2.8715,2.8719,2.8764,0,0,0,0,0,0,2.8053,2.8078,2.8117,2.8172,2.8195,2.8323,2.8277,2.8282,2.8319,2.8315,2.8368,2.8374,2.8385,2.8476,2.8493,2.8539,2.8461,2.8706,2.8712,2.8718,2.8759,2.877,2.8779,0,0,0,0,0,2.8045,2.8124,2.8119,2.8139,2.8246,2.8326,2.8339,2.8352,2.8323,2.8361,2.8386,2.8372,2.8524,2.8485,2.8503,2.8552,2.8703,2.8711,2.8718,2.8754,2.8767,2.8779,0,0,0,0,0,0,2.8071,2.8131,2.8126,2.8226,2.8272,2.8323,2.8371,2.8366,2.8418,2.8412,2.8424,2.8436,2.8522,2.8546,2.8501,2.865,2.8609,2.862,2.8631,2.8644,2.8654,2.8645,2.8467,0,0,0,0,0,2.8089,2.8152,2.82,2.8283,2.8306,2.8335,2.8371,2.8377,2.8423,2.8441,2.8472,2.8516,2.8573,2.861,2.8665,2.8763,2.8773,2.8806,2.8816,2.8824,2.8832,2.8884,2.8898,2.8744,2.8744,2.8744,0,0,2.8126,2.8166,2.8205,2.829,2.8325,2.8387,2.8351,2.8419,2.8464,2.845,2.8533,2.8558,2.8607,2.8699,2.874,2.8721,2.8878,2.8833,2.8839,2.8843,2.8893,2.8907,2.892,2.8749,2.8748,2.8747,0,0,2.8224,2.8262,2.8335,2.8372,2.8428,2.8447,2.8464,2.8517,2.8533,2.8617,2.8608,2.8661,2.876,2.8795,2.8825,2.8938,2.8926,2.8955,2.9007,2.9058,2.907,2.9081,2.9118,2.9132,2.8964,2.8965,2.8965,0,2.8261,2.8357,2.8373,2.8441,2.8478,2.8472,2.8544,2.8579,2.8648,2.8672,2.8651,2.8774,2.8807,2.8906,2.8933,2.8959,2.8977,2.8948,2.9067,2.9078,2.9088,2.9124,2.9139,2.8968,2.8967,2.8967,2.8967,0,2.8399,2.8465,2.8517,2.8587,2.863,2.87,2.8724,2.8765,2.8768,2.8788,2.8873,2.8912,2.8974,2.8999,2.9001,2.9098,2.9084,2.9065,2.9024,2.9106,2.914,2.9154,2.8972,2.8971,2.897,2.8969,0,0,2.8514,2.8594,2.8612,2.8643,2.8704,2.8754,2.8824,2.8887,2.8921,2.8969,2.9025,2.911,2.9093,2.9128,2.9134,2.9179,2.9262,2.9154,2.9155,2.917,2.9368,2.938,2.9396,2.9257,2.9259,2.9261,2.9363,0,2.8616,2.8741,2.8757,2.8866,2.8926,2.8922,2.8982,2.9025,2.9046,2.9098,2.9121,2.9179,2.9154,2.9175,2.9219,2.9243,2.9302,2.9236,2.9306,2.9308,2.9291,2.9414,2.9427,2.9521,2.9377,2.9379,2.9381,0,2.8751,2.8806,2.8921,2.8974,2.9,2.9054,2.9112,2.9164,2.9211,2.9223,2.9263,2.9264,2.9333,2.9292,2.9385,2.934,2.937,2.9386,2.939,2.9394,2.9347,2.9419,2.9552,2.9565,2.9402,2.9401,2.9399,0,2.882,2.8923,2.9005,2.9032,2.9096,2.9134,2.9162,2.9207,2.9244,2.9295,2.9318,2.9376,2.9407,2.945,2.9466,2.9435,2.9558,2.9518,2.9567,2.9566,2.959,2.9588,2.9727,2.9615,2.9614,2.9614,2.9614,0,2.893,2.9,2.9037,2.9087,2.9165,2.9183,2.9259,2.9285,2.9325,2.9378,2.9379,2.9428,2.9447,2.9499,2.9512,2.9586,2.96,2.961,2.9612,2.9608,2.9607,2.9626,2.9618,2.9618,2.9617,2.9616,2.9616,0,2.9019,2.9047,2.9136,2.919,2.9206,2.926,2.9305,2.9353,2.9374,2.9442,2.9458,2.9491,2.9553,2.9574,2.9647,2.9656,2.9741,2.9739,2.9725,2.9725,2.9771,2.9766,2.9925,2.9945,2.9822,2.9823,2.9824,0,2.9086,2.9141,2.9202,2.9238,2.9269,2.9328,2.9366,2.9386,2.9425,2.9484,2.9523,2.9585,2.9635,2.9732,2.9761,2.9817,2.9814,2.9866,2.9822,2.9817,2.9811,2.9807,2.9811,2.9873,2.9874,2.9875,2.9876,0,2.9201,2.9213,2.9269,2.933,2.9376,2.9425,2.9471,2.9501,2.9527,2.9571,2.9635,2.9674,2.9751,2.981,2.9868,2.9894,2.9888,2.9891,2.9904,2.9899,2.9888,2.9892,2.9744,2.9886,2.9885,2.9884,2.9884,2.9883,2.9279,2.9327,2.9377,2.944,2.9478,2.9522,2.9569,2.9597,2.9652,2.9717,2.9725,2.9793,2.9838,2.9915,2.9944,2.9996,2.9981,3.0001,3.0006,3.001,3.0012,2.9883,3.0007,3.0006,3.0006,3.0006,3.0006,0,2.9392,2.9425,2.9482,2.9549,2.9597,2.9592,2.9644,2.9684,2.9745,2.9789,2.9839,2.9911,2.997,3.0004,3.0062,3.0096,3.0095,3.0111,3.0106,3.0112,3.0024,3.0005,3.0111,3.011,3.011,3.011,3.011,3.011,2.9456,2.9535,2.9553,2.965,2.9682,2.9751,2.978,2.982,2.9855,2.9937,2.9987,3.001,3.0049,3.011,3.0163,3.0171,3.0191,3.0207,3.0214,3.0129,3.0119,3.0108,3.009,3.0212,3.0212,3.0297,3.0298,3.0299]},{"header":{"parameterUnit":"m.s-1","parameterCategory":1,"la1":30.2991,"la2":30.254,"lo1":-89.0895,"lo2":-89.0444,"dy":0.0017,"dx":0.0017,"nx":28,"ny":28,"refTime":"2024-07-07T09:00:00:Z","depth":0,"parameterNumber":3,"parameterNumberName":"V-component_of_WINDS"},"data":[0,0,0,0,0,0,0,0,0,0,0,0,0,0,0,0,0,0,0,0,0,0,0,0,0,0,0,0,0,0,0,0,0,0,0,0,0,0,0,0,0,0,0,0,0,0,0,0,0,0,0,0,0,0,0,0,0,0,1.6736,1.6739,0,1.7064,1.7068,1.7071,1.7141,1.7138,1.7136,1.7134,1.7484,1.7495,1.7506,0,0,0,0,0,0,0,0,0,0,0,0,0,1.6182,1.6192,1.6736,1.674,1.6744,1.7063,1.7068,1.7072,1.7141,1.7138,1.7135,1.7132,1.748,1.7493,1.7507,0,0,0,0,0,0,0,0,0,0,0,0,0,1.6458,1.6195,1.6735,1.6816,1.6827,1.7062,1.7068,1.7074,1.7142,1.7138,1.7134,1.7131,1.7475,1.7492,1.7509,1.7691,0,0,1.7563,1.757,0,0,0,0,0,0,0,0,1.6442,1.6478,1.68,1.6811,1.6823,1.7057,1.7001,1.7281,1.7143,1.7023,1.7133,1.7129,1.7346,1.7374,1.7444,1.7708,1.7723,1.7564,1.7575,1.7582,1.7587,0,0,0,0,0,0,0,1.6423,1.6465,1.6866,1.6805,1.6819,1.6841,1.6876,1.7055,1.7202,1.7033,1.7039,1.7076,1.7351,1.7427,1.7452,1.7728,1.7564,1.7579,1.759,1.7597,1.8158,1.8162,0,0,0,0,0,0,1.6388,1.6448,1.6856,1.6876,1.6619,1.6854,1.6893,1.6986,1.72,1.7228,1.7079,1.7078,1.7399,1.7432,1.7465,1.7691,1.7582,1.7598,1.7608,1.8154,1.8159,1.8164,0,0,0,0,0,0,1.6375,1.6423,1.6842,1.6664,1.6718,1.6867,1.6971,1.6995,1.707,1.7234,1.7262,1.7128,1.7397,1.7441,1.7633,1.7705,1.7606,1.7622,1.8148,1.8155,1.8161,1.8146,0,0,0,0,0,0,1.6359,1.6418,1.6486,1.6664,1.6728,1.7001,1.6976,1.7004,1.7098,1.71,1.7287,1.7315,1.7398,1.7607,1.7651,1.7727,1.7636,1.8143,1.8151,1.8159,1.814,1.8151,1.816,0,0,0,0,0,1.6339,1.6472,1.6489,1.6538,1.6814,1.7005,1.7042,1.713,1.7103,1.7175,1.728,1.7309,1.7689,1.7626,1.7676,1.7758,1.8139,1.8149,1.8159,1.8136,1.8149,1.816,0,0,0,0,0,0,1.6303,1.6497,1.6518,1.6711,1.684,1.7016,1.7109,1.7141,1.7284,1.7281,1.7389,1.7431,1.7617,1.7708,1.7633,1.7946,1.7913,1.7934,1.7879,1.7893,1.7902,1.7877,1.765,0,0,0,0,0,1.6316,1.645,1.6615,1.677,1.6833,1.6959,1.7046,1.7102,1.7242,1.7299,1.7419,1.7557,1.7708,1.7806,1.7954,1.8154,1.8197,1.8236,1.8245,1.8252,1.8269,1.8381,1.8401,1.8197,1.8196,1.8196,0,0,1.6348,1.647,1.6549,1.6765,1.6872,1.7012,1.7005,1.7154,1.726,1.7324,1.7511,1.7604,1.7766,1.7963,1.8056,1.8044,1.8334,1.8265,1.8269,1.8283,1.8394,1.8413,1.843,1.8203,1.8202,1.8201,0,0,1.6476,1.6581,1.6721,1.6827,1.6987,1.707,1.7104,1.7275,1.7337,1.7526,1.7576,1.7706,1.7964,1.8077,1.8168,1.8338,1.837,1.8384,1.8435,1.8543,1.8559,1.8574,1.8634,1.8655,1.84,1.84,1.84,0,1.6496,1.6704,1.6791,1.6936,1.7031,1.7089,1.7233,1.7334,1.7536,1.7602,1.7585,1.7908,1.8022,1.8245,1.8286,1.8358,1.8402,1.8363,1.8549,1.8565,1.858,1.8639,1.8661,1.84,1.84,1.84,1.84,0,1.6721,1.6865,1.696,1.7147,1.7253,1.7398,1.7509,1.7607,1.7654,1.7739,1.7932,1.807,1.8246,1.8304,1.8354,1.8536,1.8523,1.8526,1.8496,1.8598,1.8655,1.8679,1.8401,1.8401,1.8401,1.8401,0,0,1.6837,1.7067,1.7101,1.7186,1.7366,1.7482,1.7631,1.7798,1.7879,1.8017,1.8146,1.8361,1.8365,1.8468,1.8532,1.8627,1.8752,1.8619,1.8624,1.8638,1.8961,1.8956,1.8981,1.8774,1.8779,1.8783,1.8947,0,1.6986,1.7247,1.7328,1.7548,1.7684,1.774,1.787,1.7997,1.8081,1.8211,1.8307,1.8457,1.845,1.8513,1.8609,1.8715,1.8818,1.8705,1.8898,1.8903,1.8854,1.9011,1.9008,1.9156,1.897,1.8974,1.8977,0,1.7196,1.733,1.7562,1.7723,1.7784,1.7898,1.8058,1.818,1.8327,1.8381,1.8495,1.855,1.8711,1.8671,1.8895,1.8816,1.8901,1.8965,1.8973,1.8994,1.8946,1.9037,1.9206,1.9228,1.9013,1.901,1.9007,0,1.7256,1.7496,1.7666,1.7737,1.793,1.8009,1.8094,1.8236,1.8331,1.8473,1.8536,1.8696,1.8784,1.8909,1.9007,1.8968,1.9222,1.919,1.9275,1.9272,1.9326,1.9321,1.951,1.938,1.938,1.9379,1.9379,0,1.7414,1.7554,1.7695,1.7799,1.7958,1.8052,1.8208,1.8297,1.8422,1.8548,1.8609,1.8726,1.8848,1.8983,1.9061,1.9235,1.9275,1.9326,1.9345,1.932,1.9314,1.9377,1.9369,1.9385,1.9384,1.9383,1.9382,0,1.7508,1.7608,1.7796,1.7962,1.8007,1.8117,1.8261,1.8366,1.8452,1.861,1.8652,1.8789,1.895,1.9059,1.9268,1.932,1.9509,1.9527,1.9458,1.9467,1.9545,1.9536,1.9782,1.9819,1.9663,1.9664,1.9665,0,1.7603,1.771,1.7886,1.7971,1.8055,1.8193,1.8289,1.8387,1.8485,1.8658,1.8743,1.8907,1.9043,1.9299,1.942,1.9579,1.9601,1.9676,1.9626,1.9597,1.9603,1.9594,1.9606,1.9684,1.9685,1.9686,1.9687,0,1.776,1.7803,1.7936,1.8086,1.8198,1.8323,1.8448,1.8516,1.8637,1.8745,1.8907,1.9012,1.9222,1.9385,1.9555,1.9648,1.9689,1.9701,1.973,1.9705,1.9661,1.9685,1.9479,1.9696,1.9695,1.9694,1.9694,1.9694,1.7858,1.7955,1.8093,1.824,1.8343,1.8458,1.8564,1.8661,1.8797,1.8971,1.9022,1.9192,1.9336,1.9568,1.9663,1.98,1.9794,1.9834,1.9845,1.9853,1.9852,1.9638,1.9832,1.9832,1.9831,1.9831,1.9831,0,1.8017,1.8108,1.8241,1.8412,1.8528,1.855,1.869,1.8787,1.8933,1.9062,1.9193,1.938,1.9538,1.9669,1.9833,1.9917,1.994,1.9957,1.9953,1.9973,1.9849,1.9808,1.9936,1.9936,1.9936,1.9936,1.9936,1.9936,1.8114,1.828,1.834,1.8559,1.865,1.8812,1.889,1.8998,1.9101,1.9304,1.9434,1.9516,1.9648,1.9821,1.9968,2.0003,2.0061,2.0073,2.0112,1.9994,1.9982,1.9971,1.9933,2.0085,2.0085,2.0226,2.0227,2.0228]}]]